NOAA 16 DEB

Satellite information

Favourite Embed

Satellite Type and Status

DEBRISIN ORBIT

Key statistics

Satellite NOAA 16 DEB at a glance.

Uptime

9214

Days in orbit

Revolutions

≈ 14.3

Per day

Orbit

SSO

Sun Synchronous Orbit

Inclination

98.8

Latest

Satellite identification and parameters

Extended collection of information and parameters for NOAA 16 DEB.

Object identification

Identified? True

Debris? True

Object name: NOAA 16 DEB

International designator: 2000-055TS

Object number (NORAD): 42422

Object ID (CCSDS): 42422

Country: UNITED STATES OF AMERICA (US)

Current information (Y/N): Y

RCS size: SMALL

Orbital parameters

Period: 100.499 minutes

Inclination: 98.7786 deg

SMA: 7160.363 km

Apoapsis: 791.302 km

Periapsis: 773.153 km

RAAN: 83.9832 deg

Eccentricy: 0.00126731

Argument of periapsis: 132.9136 deg

Mean anomaly: 227.3113 deg

Mean motion: 14.32848393 rev/day

Mean motion (dot): 0.00008582 rev/day2

B* drag term: 0.0031555087 1/REarth

Two-line elements (TLE)

Creation date: Dec. 11, 2025, 10:54 a.m.

Reference frame: TEME

Reference center: EARTH

Epoch: Dec. 11, 2025, 2:01 a.m. UTC

TLE line 0: 0 NOAA 16 DEB

TLE line 1: 1 42422U 00055TS 25345.08409224 .00008582 00000-0 31555-2 0 9996

TLE line 2: 2 42422 98.7786 83.9832 0012673 132.9136 227.3113 14.32848393500052

Live tracking on map

Real-time ground track for satellite NOAA 16 DEB.

In-orbit conjunctions

A list of the most updated potential collisions computed for object NOAA 16 DEB.

Target Orbit TCA Probability of collision Miss distance Type
COSMOS 2251 DEB LEO 2025-12-11 18:17:26 0.0002070659 133.0 (m) DEBRIS
COSMOS 2251 DEB LEO 2025-11-10 11:06:19 0.0001321774 225.0 (m) DEBRIS
IDEFIX/ARIANE 42P SSO 2025-08-16 00:45:22 0.0001656982 985.0 (m) PAYLOAD
COSMOS 252 DEB LEO 2025-08-05 16:20:04 0.000100947 204.0 (m) DEBRIS
DMSP 5D-2 F13 DEB SSO 2025-05-03 04:32:52 0.000161987 226.0 (m) DEBRIS

Associated space launch

The NOAA K, L and M POES satellites begin the fifth generation of improved environmental monitoring in support of NOAA missions. The instrument payload has significant improvements and additions/deletions. The instrument changes have effected the spacecraft subsystems and data formats.

NOAA 16 DEB was lifted into orbit during the mission ‘Titan II SLV | NOAA 16’, on board a Titan II SLV space rocket.

The launch took place on Sept. 21, 2000, 10:22 a.m. from Space Launch Complex 4W.

For more information about the launch, click the button.

Launch to space Titan II SLV | NOAA 16
Titan II SLV | NOAA 16

Agency: N/A

Status: Launch Successful

Launch date: Sept. 21, 2000, 10:22 a.m. UTC

Rocket: Titan II SLV

Launch pad: Space Launch Complex 4W

Location: Vandenberg SFB, CA, USA

...

Latest news about this satellite

There are no fresh news available about this satellite. Check back as we update our databases every day.


Newsletter sign-up

Weekly statistics, charts and insights to help you stay on top of the space industry.